Stations météo

réclame
Mon MeteoGroup
Strathallan, Grande-Bretagne (3144): Température de l'air & dewpoint: 18.01.2018 09:00:00 - 24.01.2018 09:00:00 (GMT)Strathallan, Grande-Bretagne (3144): Vitesse du vent & gusts: 18.01.2018 09:00:00 - 24.01.2018 09:00:00 (GMT)Strathallan, Grande-Bretagne (3144): Direction du vent: 18.01.2018 09:00:00 - 24.01.2018 09:00:00 (GMT)Strathallan, Grande-Bretagne (3144): reduced air pressure: 18.01.2018 09:00:00 - 24.01.2018 09:00:00 (GMT)Strathallan, Grande-Bretagne (3144): visibility: 18.01.2018 09:00:00 - 24.01.2018 09:00:00 (GMT)Strathallan, Grande-Bretagne (3144): Quantités de précipitations: 18.01.2018 09:00:00 - 24.01.2018 09:00:00 (GMT)
Date & Time tt [°C] td [°C] ff [km/h] ff [knt] fx [km/h] fx [knt] dd ppp [hPa] vv [km] rr [mm]
24.01.2018 09:00:00 6,1 2,5 35 19 87 47 SW 982,1 50 0,2
24.01.2018 08:00:00 5,7 2,3 54 29 98 53 SW 981,7 2,4 0,2
24.01.2018 07:00:00 6,5 4,0 34 18 80 43 SW 981,2 45 0,6
24.01.2018 06:00:00 9,8 6,7 37 20 63 34 SW 980,3 45 0,8
24.01.2018 05:00:00 10,1 8,7 28 15 54 29 SSW 982,4 5 1,8
24.01.2018 04:00:00 9,1 7,9 22 12 55 30 S 984,6 15 1,6
24.01.2018 03:00:00 8,0 6,7 18 10 - - S 987,5 10 2,6
24.01.2018 02:00:00 6,1 4,5 8 4 - - SSE 991,2 10 1,4
24.01.2018 01:00:00 6,4 4,7 11 6 - - S 994,9 17 2,4
24.01.2018 00:00:00 7,2 4,4 13 7 - - SSW 997,6 16 0,0
23.01.2018 23:00:00 6,5 4,2 11 6 - - W 998,7 21 0,0
23.01.2018 22:00:00 6,4 4,1 15 8 - - SW 998,5 35 0,0
23.01.2018 21:00:00 6,7 3,8 22 12 - - SW 998,7 40 0,2
23.01.2018 20:00:00 6,8 4,2 29 16 - - SW 998,3 35 0,0
23.01.2018 19:00:00 6,6 4,5 28 15 - - SW 998,0 50 0,0
23.01.2018 18:00:00 7,5 5,4 18 10 48 26 SW 997,1 40 0,6
23.01.2018 17:00:00 8,0 6,6 11 6 - - SW 996,4 19 0,0
23.01.2018 16:00:00 8,6 7,0 16 9 - - WSW 996,3 25 0,0
23.01.2018 15:00:00 9,0 8,0 15 8 - - WSW 996,6 14 0,0
23.01.2018 14:00:00 9,6 8,3 18 10 - - SW 996,4 23 0,0
23.01.2018 13:00:00 9,4 8,9 22 12 48 26 SW 996,2 45 0,4
23.01.2018 12:00:00 10,2 9,4 31 17 52 28 SW 996,0 6 1,4
23.01.2018 11:00:00 10,1 9,0 24 13 50 27 SSW 995,8 7 0,2
23.01.2018 10:00:00 9,3 8,6 21 11 - - SW 996,4 5 1,2
23.01.2018 09:00:00 8,8 7,7 21 11 - - SSW 997,6 12 1,2
23.01.2018 08:00:00 7,6 7,5 5 3 - - W 998,9 50 0,0
23.01.2018 07:00:00 6,2 6,2 5 3 - - NNW 1000,1 45 0,0
23.01.2018 06:00:00 6,0 5,8 5 3 - - NW 1001,5 8 0,2
23.01.2018 05:00:00 6,3 6,0 5 3 - - WSW 1002,7 10 0,6
23.01.2018 04:00:00 6,5 5,9 16 9 - - SW 1004,2 3,1 0,4
23.01.2018 03:00:00 6,5 5,6 18 10 - - SW 1004,5 5 0,2
23.01.2018 02:00:00 5,8 5,0 15 8 - - WSW 1006,0 3,6 0,2
23.01.2018 01:00:00 6,0 4,1 4 2 - - WNW 1007,0 25 0,0
23.01.2018 00:00:00 6,1 4,4 9 5 - - SW 1007,6 30 0,0
22.01.2018 23:00:00 6,0 4,7 8 4 - - WSW 1008,0 17 0,0
22.01.2018 22:00:00 5,9 4,8 11 6 - - SW 1008,0 11 0,0
22.01.2018 21:00:00 5,9 4,8 16 9 - - SW 1008,5 11 0,0
22.01.2018 20:00:00 6,1 4,5 18 10 - - SW 1008,2 11 0,0
22.01.2018 19:00:00 5,9 2,9 22 12 - - SSW 1007,9 19 0,0
22.01.2018 18:00:00 6,2 3,2 29 16 - - SW 1007,2 19 0,0
22.01.2018 17:00:00 6,9 3,5 29 16 48 26 SW 1006,2 22 0,0
22.01.2018 16:00:00 6,8 3,3 22 12 - - WSW 1005,5 21 0,0
22.01.2018 15:00:00 6,8 3,9 29 16 - - WSW 1004,4 29 0,0
22.01.2018 14:00:00 5,5 4,6 21 11 - - WSW 1004,7 8 0,4
22.01.2018 13:00:00 5,5 4,2 24 13 - - SW 1003,8 19 0,0
22.01.2018 12:00:00 4,9 3,5 24 13 - - SW 1003,2 11 0,0
22.01.2018 11:00:00 5,2 3,9 21 11 - - SW 1003,1 14 0,0
22.01.2018 10:00:00 5,1 3,2 18 10 - - SW 1002,0 13 0,0
22.01.2018 09:00:00 4,7 3,2 21 11 - - SW 1001,3 15 0,0
22.01.2018 08:00:00 4,1 2,6 15 8 - - WSW 1000,9 21 0,2
22.01.2018 07:00:00 4,0 3,0 15 8 - - WSW 1000,3 15 0,0
22.01.2018 06:00:00 4,2 3,2 18 10 - - SW 999,7 15 0,0
22.01.2018 05:00:00 3,9 3,2 9 5 - - SSW 999,7 14 0,0
22.01.2018 04:00:00 3,9 2,8 21 11 - - SW 999,1 18 0,2
22.01.2018 03:00:00 3,4 2,5 2 1 - - E 999,0 21 0,0
22.01.2018 02:00:00 3,4 2,6 21 11 - - SW 998,2 24 0,0
22.01.2018 01:00:00 3,1 2,7 9 5 - - SSW 998,7 30 0,0
22.01.2018 00:00:00 2,4 2,0 5 3 - - SSW 998,4 45 0,0
21.01.2018 23:00:00 1,1 1,0 9 5 - - SW 998,5 40 0,0
21.01.2018 22:00:00 0,6 0,6 9 5 - - SW 998,5 20 0,0
21.01.2018 21:00:00 0,1 0,1 4 2 - - SW 998,5 4,9 0,0
21.01.2018 20:00:00 0,0 0,0 4 2 - - W 999,0 1,7 0,0
21.01.2018 19:00:00 -0,3 -0,3 5 3 - - WSW 998,9 1,8 0,0
21.01.2018 18:00:00 -0,6 -0,6 5 3 - - WSW 999,8 2,1 0,0
21.01.2018 17:00:00 -0,9 -0,9 2 1 - - NNW 1000,7 3,1 0,0
21.01.2018 16:00:00 -1,5 -1,7 0 0 - - N 1001,6 2,8 0,0
21.01.2018 15:00:00 -1,9 -2,5 2 1 - - WSW 1003,2 6 0,0
21.01.2018 14:00:00 -2,3 -2,8 4 2 - - NW 1005,4 2,7 0,0
21.01.2018 13:00:00 -2,5 -3,4 5 3 - - WSW 1007,3 50 0,0
21.01.2018 12:00:00 -3,0 -3,8 4 2 - - WSW 1007,9 45 0,0
21.01.2018 11:00:00 -3,6 -4,2 0 0 - - N 1008,7 45 0,0
21.01.2018 10:00:00 -4,3 -4,8 4 2 - - WSW 1010,6 50 0,0
21.01.2018 09:00:00 -4,7 -5,1 4 2 - - W 1010,8 50 0,0
21.01.2018 08:00:00 -5,1 -5,5 4 2 - - W 1010,7 50 0,0
21.01.2018 07:00:00 -5,3 -5,7 5 3 - - W 1010,8 50 0,0
21.01.2018 06:00:00 -5,3 -5,7 2 1 - - NNW 1011,5 50 0,0
21.01.2018 05:00:00 -5,4 -5,8 2 1 - - ESE 1012,1 50 0,0
21.01.2018 04:00:00 -5,8 -6,3 0 0 - - N 1012,0 50 0,0
21.01.2018 03:00:00 -6,1 -6,6 2 1 - - SSW 1012,0 50 0,0
21.01.2018 02:00:00 -6,1 -6,5 5 3 - - WSW 1012,2 50 0,0
21.01.2018 01:00:00 -6,6 -7,4 2 1 - - NW 1011,7 50 0,0
21.01.2018 00:00:00 -6,5 -7,1 4 2 - - SSW 1011,0 50 0,0
20.01.2018 23:00:00 -6,9 -7,5 4 2 - - W 1010,4 50 0,0
20.01.2018 22:00:00 -6,4 -6,8 8 4 - - SW 1009,7 50 0,0
20.01.2018 21:00:00 -7,7 -8,5 8 4 - - SW 1009,1 50 0,0
20.01.2018 20:00:00 -6,7 -7,3 9 5 - - WSW 1008,2 50 0,0
20.01.2018 19:00:00 -6,1 -6,8 8 4 - - W 1007,4 35 0,0
20.01.2018 18:00:00 -5,3 -6,0 5 3 - - WSW 1005,8 45 0,0
20.01.2018 17:00:00 -5,0 -6,0 5 3 - - W 1004,8 50 0,0
20.01.2018 16:00:00 -2,2 -4,4 5 3 - - WSW 1003,7 50 0,0
20.01.2018 15:00:00 -0,8 -2,9 8 4 - - W 1002,3 50 0,0
20.01.2018 14:00:00 -0,3 -2,3 5 3 - - W 1001,4 50 0,0
20.01.2018 13:00:00 -1,0 -2,6 4 2 - - WNW 1000,5 50 0,0
20.01.2018 12:00:00 0,9 -1,4 0 0 - - N 1000,0 50 0,0
20.01.2018 11:00:00 -2,5 -3,0 4 2 - - NNW 999,7 50 0,0
20.01.2018 10:00:00 -3,3 -3,6 2 1 - - NW 999,5 45 0,0
20.01.2018 09:00:00 -3,9 -4,4 8 4 - - SW 999,1 50 0,0
20.01.2018 08:00:00 -2,8 -3,2 4 2 - - NW 998,5 50 0,0
20.01.2018 07:00:00 -1,6 -2,7 9 5 - - W 997,9 50 0,0
20.01.2018 06:00:00 -1,0 -2,2 8 4 - - WSW 998,0 50 0,0
20.01.2018 05:00:00 -0,4 -1,6 9 5 - - SW 997,8 50 0,0
20.01.2018 04:00:00 -1,1 -2,0 8 4 - - SW 997,7 50 0,0
20.01.2018 03:00:00 -0,2 -0,9 4 2 - - WSW 997,9 45 0,0
20.01.2018 02:00:00 0,8 0,3 13 7 - - SW 997,9 50 0,0
20.01.2018 01:00:00 0,8 0,3 16 9 - - SW 997,9 50 0,0
20.01.2018 00:00:00 0,5 0,3 8 4 - - WNW 998,1 8 0,0
19.01.2018 23:00:00 1,0 0,5 15 8 - - SW 998,5 35 0,0
19.01.2018 22:00:00 0,8 0,3 15 8 - - W 999,0 50 0,0
19.01.2018 21:00:00 0,5 -0,3 16 9 - - WSW 999,2 50 0,0
19.01.2018 20:00:00 0,4 -0,1 16 9 - - WSW 999,3 50 0,0
19.01.2018 19:00:00 -0,2 -0,6 16 9 - - SW 998,8 50 0,0
19.01.2018 18:00:00 0,2 -0,1 22 12 - - SW 998,5 50 0,0
19.01.2018 17:00:00 1,2 0,5 8 4 - - SSW 998,0 14 0,0
19.01.2018 16:00:00 1,3 0,3 15 8 - - SW 998,3 50 0,0
19.01.2018 15:00:00 1,3 0,4 16 9 - - SW 997,8 50 0,0
19.01.2018 14:00:00 1,3 0,6 16 9 - - SW 998,3 35 0,0
19.01.2018 13:00:00 1,5 0,6 24 13 - - SW 998,1 40 0,4
19.01.2018 12:00:00 1,1 0,8 15 8 - - SW 998,4 35 0,8
19.01.2018 11:00:00 1,3 0,6 24 13 - - SW 998,5 50 0,8
19.01.2018 10:00:00 1,1 0,6 22 12 - - WSW 998,4 50 0,0
19.01.2018 09:00:00 0,5 0,1 11 6 - - WSW 998,9 1,1 0,0
19.01.2018 08:00:00 0,7 0,0 16 9 - - WSW 998,6 21 0,0
19.01.2018 07:00:00 0,6 -0,3 24 13 - - SW 998,3 50 0,2
19.01.2018 06:00:00 1,2 0,6 16 9 - - SW 998,3 50 0,0
19.01.2018 05:00:00 1,1 0,2 15 8 - - WSW 998,4 28 0,0
19.01.2018 04:00:00 1,0 -0,2 21 11 - - SW 998,2 50 0,0
19.01.2018 03:00:00 0,9 0,1 15 8 - - WSW 998,5 35 0,0
19.01.2018 02:00:00 0,5 0,0 15 8 - - SW 998,6 50 0,0
19.01.2018 01:00:00 0,6 0,2 18 10 - - SW 998,8 50 0,0
19.01.2018 00:00:00 0,2 -0,1 18 10 - - SW 998,7 50 0,0
18.01.2018 23:00:00 0,2 -0,3 5 3 - - W 998,9 50 0,0
18.01.2018 22:00:00 0,3 -0,4 13 7 - - WSW 998,5 50 0,0
18.01.2018 21:00:00 0,4 -0,5 13 7 - - SW 998,5 50 0,0
18.01.2018 20:00:00 0,6 -0,4 15 8 - - SSW 998,3 50 0,0
18.01.2018 19:00:00 0,7 0,0 15 8 - - SW 997,8 50 0,0
18.01.2018 18:00:00 1,1 0,4 18 10 - - SW 997,0 50 0,0
18.01.2018 17:00:00 0,9 0,3 8 4 - - NNW 996,7 50 0,0
18.01.2018 16:00:00 0,9 0,4 15 8 - - WSW 996,1 50 0,0
18.01.2018 15:00:00 1,5 0,6 13 7 - - SW 995,8 50 0,0
18.01.2018 14:00:00 1,8 1,2 16 9 - - WSW 995,5 50 0,0
18.01.2018 13:00:00 1,8 0,8 16 9 - - WSW 995,2 50 0,0
18.01.2018 12:00:00 2,2 1,1 15 8 - - SW 995,0 50 0,0
18.01.2018 11:00:00 1,6 0,7 15 8 - - WSW 994,7 50 0,0
18.01.2018 10:00:00 1,3 0,5 16 9 - - SW 994,2 45 0,0
18.01.2018 09:00:00 1,3 0,4 15 8 - - SW 993,6 50 0,0

tt = Température de l'air
td = dewpoint
ff = Vitesse du vent
fx = gusts
dd = Direction du vent
ppp = reduced air pressure
vv = visibility
rr = Quantités de précipitations

stations d'obs. à proximité